Regional Weather Roundup
Issued by NWS

Home | Current Version | Previous Version | Graphics & Text | Print | Product List | Glossary Off
Versions: 1 2 3 4 5 6 7 8 9 10 11 12 13 14 15 16 17 18 19 20 21 22 23 24 25 26 27 28 29 30 31 32 33 34 35 36 37 38 39 40 41 42 43 44 45 46 47 48 49 50

000
ASUS43 KLSX 211557
RWRMO

WEATHER SUMMARY FOR MISSOURI
NATIONAL WEATHER SERVICE SPRINGFIELD MO
1000 AM CST TUE FEB 21 2017

NOTE: "FAIR" INDICATES FEW OR NO CLOUDS BELOW 12,000 FEET WITH NO
       SIGNIFICANT WEATHER AND/OR OBSTRUCTIONS TO VISIBILITY.
       CURRENT SKY AND/OR WEATHER CONDITIONS ARE NOT AVAILABLE FOR
       CHILLICOTHE AND FARMINGTON.

MOZ001>031-035>038-043-044-053-054-211700-
...NORTHERN AND WESTERN MISSOURI...

CITY           SKY/WX    TMP DP  RH WIND       PRES   REMARKS
KANSAS CTY INT MOSUNNY   56  46  69 NE8       29.99S
LEE`S SUMMIT   PTSUNNY   57  48  72 N9        29.99R
ST JOSEPH      SUNNY     53  46  77 VRB3      30.01S
CHILLICOTHE      N/A     57  46  66 NE7       30.00S

$$
MOZ066>068-077>081-088>096-101>105-211700-
...SOUTHWEST MISSOURI...

CITY           SKY/WX    TMP DP  RH WIND       PRES   REMARKS
SPRINGFIELD    CLOUDY    59  56  89 N12       29.91S
JOPLIN         PTSUNNY   58  54  86 N7        29.95S
BRANSON        CLOUDY    55  55 100 NW8       29.91S

$$
MOZ032>034-039>042-045>050-055>058-069>072-211700-
...CENTRAL MISSOURI...

CITY           SKY/WX    TMP DP  RH WIND       PRES   REMARKS
COLUMBIA       NOT AVBL
JEFFERSON CITY CLOUDY    61  56  83 NE5       29.94R
ROLLA            N/A     58  58 100 N8        29.91S FOG
SEDALIA        MOSUNNY   63  55  75 NE7       29.97R
WARRENSBURG    CLOUDY    55  48  76 N8        29.97R
OSAGE BEACH    CLOUDY    61  57  88 VRB3      29.95R

$$
MOZ051-052-059>065-211700-
...EAST CENTRAL MISSOURI...

CITY           SKY/WX    TMP DP  RH WIND       PRES   REMARKS
ST LOUIS INTL  LGT RAIN  62  59  90 E7        29.93R FOG

$$
MOZ072>076-082>087-097>100-106>115-211700-
...SOUTH CENTRAL AND SOUTHEAST MISSOURI...

CITY           SKY/WX    TMP DP  RH WIND       PRES   REMARKS
CAPE GIRARDEAU CLOUDY    61  50  67 NE10      29.90F
POPLAR BLUFF   CLOUDY    59  54  83 NE8       29.90R
WEST PLAINS    CLOUDY    58  57  97 E7        29.90S FOG

$$



USA.gov is the U.S. government's official web portal to all federal, state and local government web resources and services.